Location: General Nathan Twining Observatory
(34.5931°N, 106.8201°W)
Time: 02:00:15
(UTC-06:00)

Daily predictions for brighter satellites

Satellite Brightness Start Highest point End
(mag) Time Altitude Azimuth Time Altitude Azimuth Time Altitude Azimuth
Cosmos 2263 Rocket 4.2 00:11:29 16° ENE 00:11:29 16° ENE 00:13:12 10° NE
Meteor 2-10 Rocket 4.5 00:05:01 10° N 00:09:42 44° NE 00:09:42 44° NE
Lacrosse 4 Rocket 3.3 00:14:07 10° NW 00:16:24 27° NW 00:16:24 27° NW
SL-16 R/B 3.2 00:23:57 10° NW 00:28:10 37° WNW 00:28:10 37° WNW
Cosmos 2074 Rocket 4.2 00:29:41 61° WNW 00:29:41 61° WNW 00:35:50 10° N
Cosmos 1607 4.5 00:23:49 10° NNW 00:29:45 48° ENE 00:29:47 48° ENE
Cosmos 2333 Rocket 4.5 00:29:23 10° WNW 00:31:34 13° W 00:31:34 13° W
CZ-2C R/B 4.3 00:29:07 10° NE 00:31:36 23° ENE 00:31:36 23° ENE
ATLAS 3B R/B 3.2 00:28:08 10° NW 00:33:49 45° W 00:33:49 45° W
Cosmos 44 4.2 00:36:12 51° NNW 00:36:12 51° NNW 00:40:34 10° NNE
Nadezhda 3 Rocket 4.4 00:29:30 10° N 00:35:03 53° ENE 00:35:03 53° ENE
COSMOS 2455 4.2 00:40:21 10° NW 00:44:11 27° W 00:44:11 27° W
USA 238 DEB 3.7 00:42:53 10° NNW 00:49:31 78° WNW 00:49:31 78° WNW
USA 238 3.7 00:42:59 10° NNW 00:49:38 79° WNW 00:49:38 79° WNW
Cosmos 1943 4.1 00:45:05 10° N 00:49:55 41° NE 00:49:55 41° NE
H-2A R/B 4.4 00:53:10 10° N 00:55:27 29° NNW 00:55:27 29° NNW
SeaSat 1 3.8 01:03:05 33° NW 01:03:05 33° NW 01:05:55 10° NNW
Cosmos 2154 Rocket 4.2 01:02:28 67° NW 01:02:28 67° NW 01:08:09 10° N
Meteor 1-27 Rocket 4.2 01:03:45 10° N 01:08:26 57° NNE 01:08:26 57° NNE
CZ-4C R/B 2.8 01:11:01 10° NNW 01:18:20 81° ENE 01:18:45 78° E
NOSS 3-2 (C) 4.3 01:16:08 10° NNW 01:23:41 62° ENE 01:25:27 51° ESE
Cosmos 1867 4.4 01:21:24 10° NNW 01:26:00 47° NNE 01:26:00 47° NNE
FALCON 9 R/B 4.1 01:17:21 10° WNW 01:23:35 27° W 01:23:35 27° W
CZ-2C R/B 3.8 01:28:47 53° NE 01:28:47 53° NE 01:33:37 10° N
NOSS 3-4 (A) 4.2 01:41:51 45° WNW 01:42:25 46° NW 01:48:42 10° NNE
NOSS 3-4 (C) 4.2 01:41:58 45° WNW 01:42:30 46° NW 01:48:47 10° NNE
SL-8 Rocket 4.2 01:44:58 67° NW 01:44:58 67° NW 01:50:43 10° N
NOSS 3-2 (A) 3.8 01:37:39 10° NNW 01:45:19 84° WSW 01:45:41 81° SSW
Cosmos 1844 Rocket 4.1 01:49:51 29° E 01:49:51 29° E 01:53:43 10° NE
ATLAS 2A CENTAUR R/B 4.5 01:54:19 24° ESE 01:54:19 24° ESE 02:01:03 10° ESE
Cosmos 2263 Rocket 3.0 01:53:10 43° NW 01:53:10 43° NW 01:58:02 10° N
Cosmos 2218 Rocket 4.2 01:58:56 64° NW 01:58:56 64° NW 02:04:45 10° N
Cosmos 2366 rocket 4.2 02:09:39 60° WNW 02:09:39 60° WNW 02:15:18 10° N
Cosmos 967 Rocket 4.4 02:12:03 84° NE 02:12:03 84° NE 02:18:21 10° NNE
Cosmos 2056 Rocket 4.2 02:13:11 50° NNW 02:13:11 50° NNW 02:17:22 10° N
CZ-2C R/B 4.1 02:09:25 10° NNW 02:13:07 27° WNW 02:13:07 27° WNW
Cosmos 407 Rocket 4.1 02:12:00 10° N 02:16:44 51° ENE 02:16:44 51° ENE
Cosmos 2278 Rocket 3.6 02:18:39 27° E 02:18:39 27° E 02:23:09 10° NE
COSMOS 2406 3.3 02:22:55 10° NNW 02:28:41 70° ENE 02:28:48 70° ENE
Cosmos 1727 Rocket 4.3 02:30:59 10° NNW 02:36:29 50° WNW 02:36:29 50° WNW
Iridium 4 Rocket 3.9 02:33:07 10° N 02:37:02 55° NNW 02:37:02 55° NNW
Meteor 1-25 Rocket 4.3 02:39:21 68° WNW 02:39:21 68° WNW 02:44:50 10° N
USA 234 4.3 02:45:14 10° ESE 02:51:20 44° NE 02:57:26 10° NNW
Okean 1 Rocket 3.7 02:53:31 52° N 02:53:31 52° N 02:56:59 10° N
Cosmos 1934 Rocket 4.0 02:52:40 59° SE 02:53:41 70° E 02:59:49 10° N
Cosmos 1954 Rocket 4.2 02:48:34 10° N 02:53:43 65° ENE 02:54:10 62° E
NPP 3.5 02:49:04 10° NNE 02:54:28 85° ESE 02:54:34 84° SE
CENTAUR R/B 3.3 02:50:39 10° NNW 02:58:36 72° ENE 03:06:54 10° SE
Okean 1-7 Rocket 3.9 02:57:54 10° N 03:01:50 65° N 03:01:50 65° N
ERS-2 3.4 03:00:20 10° NNE 03:02:51 41° NNE 03:02:51 41° NNE
CZ-2D R/B 3.8 03:03:24 10° NE 03:07:57 26° E 03:10:16 20° SE
Cosmos 1025 Rocket 3.8 03:05:29 10° N 03:09:38 46° E 03:10:01 44° E
Cosmos 489 Rocket 4.3 03:05:22 10° NNW 03:11:37 84° WSW 03:13:03 56° S
Meteor 2-14 Rocket 4.3 03:11:41 60° S 03:12:53 87° E 03:18:59 10° N
Cosmos 1000 Rocket 4.4 03:08:46 10° NNW 03:14:48 60° W 03:15:29 57° WSW
Cosmos 1452 Rocket 4.4 03:17:47 35° WNW 03:17:58 35° WNW 03:22:45 10° N
ARIANE 5 R/B 3.1 03:17:06 10° NNE 03:21:57 48° E 03:23:15 39° SE
Meteor 2-21 Rocket 4.4 03:21:44 56° SW 03:22:48 66° W 03:28:52 10° N
Cosmos 1536 3.0 03:23:24 73° NNE 03:23:24 73° NNE 03:27:06 10° N
Cosmos 1356 4.3 03:24:04 48° NE 03:24:04 48° NE 03:26:57 10° NNE
IRS-1C 4.0 03:19:54 10° N 03:25:14 73° WNW 03:26:01 62° SW
Cosmos 1420 Rocket 4.1 03:25:30 57° W 03:26:02 60° WNW 03:31:17 10° N
Meteor 2-15 4.4 03:20:28 10° N 03:26:39 85° E 03:29:03 40° S
GP-B 3.8 03:22:39 10° NNW 03:26:16 41° WNW 03:26:16 41° WNW
Cosmos 1844 Rocket 3.8 03:31:31 29° W 03:32:34 31° WNW 03:37:33 10° N
CBERS-1 4.4 03:27:40 10° N 03:32:36 48° WNW 03:33:10 46° W
Cosmos 1605 Rocket 3.9 03:31:47 48° SSW 03:33:37 79° W 03:39:54 10° N
Cosmos 1821 Rocket 4.5 03:33:34 39° WSW 03:34:48 44° W 03:40:52 10° N
Cosmos 1140 Rocket 3.3 03:33:06 10° NNW 03:38:14 73° WSW 03:39:18 54° SSW
Meteor 1-19 Rocket 4.2 03:32:49 10° N 03:38:41 80° W 03:40:52 41° S
Cosmos 1544 Rocket 3.4 03:39:49 68° S 03:40:22 90° WSW 03:44:47 10° N
SL-16 R/B 3.0 03:35:41 10° SSE 03:41:45 60° ENE 03:47:51 10° N
Resurs 1-4 Rocket 2.5 03:36:38 10° NNE 03:41:51 57° E 03:44:12 31° SSE
Cosmos 2123 Rocket 4.0 03:36:32 10° NNW 03:42:49 68° W 03:45:11 39° SSW
UNK 4.1 03:38:41 30° WSW 03:43:07 66° NW 03:46:42 10° NE
Cosmos 1633 3.1 03:44:38 48° NW 03:44:38 48° NW 03:47:39 10° N
COSMOS 2487 3.2 03:40:45 10° NNW 03:43:23 44° NW 03:43:23 44° NW
Atlas Centaur 2 4.4 03:43:35 19° S 03:45:52 21° SSE 03:51:51 10° ESE
SL-08 R/B 4.1 03:47:12 35° W 03:47:12 35° W 03:51:23 10° NNW
ADEOS 3.9 03:43:43 10° N 03:48:46 51° WNW 03:49:59 42° WSW
USA 161 3.0 03:51:54 31° NNW 03:51:54 31° NNW 03:53:37 10° NNW
ATLAS 5 CENTAUR R/B 2.6 03:49:33 10° NNW 03:55:41 77° ENE 04:02:10 10° SE
Cosmos 1400 Rocket 3.3 04:01:45 39° W 04:01:51 39° WNW 04:05:33 10° N
Cosmos 2278 Rocket 3.1 04:00:30 28° W 04:02:21 35° WNW 04:07:32 10° N
Cosmos 1850 Rocket 4.1 03:57:52 10° NNW 04:03:00 56° WSW 04:05:09 33° SSW
Skynet4D Del rocket 4.2 04:03:43 32° S 04:03:43 32° S 04:08:22 10° SE
Cosmos 2297 3.7 04:02:28 36° SW 04:04:47 69° WNW 04:10:28 10° NNE
H-2A R/B 4.4 04:02:23 27° SW 04:06:13 32° S 04:42:41 10° SE
Cosmos 1741 Rocket 4.1 04:01:35 10° NNW 04:06:42 53° WSW 04:08:55 31° SSW
Cosmos 1892 Rocket 3.7 04:04:09 10° NNW 04:08:21 51° W 04:09:21 42° SW
Cosmos 2173 Rocket 4.1 04:04:07 20° S 04:08:29 76° E 04:14:38 10° N
Meteor 1-23 Rocket 4.3 04:07:17 10° NNW 04:12:50 56° W 04:15:52 26° SSW
CZ-2D R/B 3.8 04:11:13 10° NNE 04:15:13 61° E 04:17:38 23° S
Yuri Rocket 4.2 04:13:22 28° WSW 04:15:45 39° SSW 04:20:29 10° SE
Cosmos 1302 Rocket 4.5 04:13:50 19° S 04:17:26 57° ESE 04:22:34 10° NNE
Meteor 1-5 Rocket 4.4 04:15:58 28° SSW 04:18:59 58° W 04:24:39 10° N
Cosmos 1459 Rocket 4.0 04:16:06 20° S 04:20:43 83° W 04:27:03 10° N
ASC 2 Rocket 4.4 04:22:45 23° S 04:22:49 23° S 04:26:20 10° SE
Cosmos 1802 Rocket 3.9 04:19:21 17° S 04:24:18 89° E 04:30:28 10° N
MTI 3.7 04:22:30 24° SSE 04:24:21 89° W 04:27:39 10° NNW
Cosmos 2082 Rocket 2.4 04:18:55 10° NNW 04:24:39 75° ENE 04:30:20 10° SSE
PSLV R/B 3.2 04:24:28 43° SW 04:25:28 76° SSE 04:28:50 10° ENE
CZ-4B R/B 4.0 04:20:12 10° NNE 04:25:43 51° E 04:31:10 10° S
BREEZE-M DEB (TANK) 3.2 04:29:04 24° WSW 04:31:50 72° NW 04:35:15 10° NE
Cosmos 2100 Rocket 4.1 04:27:41 20° SSW 04:32:03 62° W 04:38:19 10° N
Cosmos 1315 Rocket 3.8 04:31:10 26° WSW 04:32:19 30° WNW 04:35:55 10° NNW
Cosmos 2084 4.4 04:30:11 17° S 04:32:42 36° ESE 04:36:15 10° NE
Cosmos 1500 3.8 04:30:01 13° S 04:33:24 55° E 04:37:13 10° NNE
IRS-1D 4.3 04:29:30 10° N 04:33:59 33° WNW 04:36:26 21° WSW
USA 234 3.4 04:27:59 10° SSE 04:34:13 48° SW 04:40:30 10° NW
APEX 4.0 04:33:45 23° W 04:34:22 25° WNW 04:37:10 10° N
BREEZE-M TANK 2.1 04:32:58 14° WNW 04:35:01 53° SSW 04:39:49 10° SE
OAO 3 Copernicus 4.3 04:31:27 15° W 04:35:42 84° N 04:40:44 10° E
Cosmos 1602 Rocket 3.4 04:34:01 10° N 04:38:21 73° W 04:42:41 10° S
Cosmos 1346 Rocket 3.3 04:35:37 10° N 04:39:38 63° E 04:43:34 10° SSE
CZ-2D R/B 3.0 04:43:07 10° N 04:47:59 34° WNW 04:51:36 16° SW
Okean-O 4.2 04:44:37 10° NNE 04:48:39 34° E 04:52:40 10° SSE
CENTAUR R/B 4.1 04:42:44 10° WNW 04:48:49 24° WSW 04:55:01 10° SSW
Cosmos 1975 3.3 04:48:45 19° SW 04:51:12 42° W 04:55:01 10° N
Cosmos 1174 3.4 04:48:36 10° NW 04:51:50 46° WSW 04:54:42 10° S
CZ-3 Stage 3 4.4 04:06:19 10° WSW 04:53:30 63° S 05:00:28 10° E
Okean O Rocket 1.7 04:49:56 10° N 04:54:13 60° WNW 04:58:02 13° SSW
Cosmos 1066 Rocket 4.5 04:49:02 10° N 04:54:28 68° E 04:59:47 10° SSE
CZ-4B R/B 3.2 04:50:40 10° NNE 04:55:12 83° E 04:59:35 10° S
Cosmos 1626 Rocket 3.9 04:51:04 10° NNW 04:55:14 44° W 04:59:26 10° SSW
UNKNOWN OBJECT B 4.0 04:51:49 10° NNW 04:55:18 28° WNW 04:57:45 16° WSW
SME Rocket 4.0 04:54:19 17° SW 04:56:07 24° W 04:59:24 10° NW
Cosmos 1486 Rocket 4.0 04:51:04 10° NNW 04:56:26 88° WSW 05:01:45 10° SSE
ARIANE 5 R/B 4.2 04:57:34 10° NNW 05:00:39 17° WNW 05:03:35 11° WSW
Cosmos 1833 Rocket 2.6 04:56:36 10° NNW 05:02:10 66° WSW 05:07:42 10° S
NAVSTAR 52 R/B(PAM-D 4.0 05:02:26 16° W 05:03:49 43° NNW 05:06:07 10° ENE
Tsikada Rocket 4.2 04:57:44 10° N 05:03:57 79° E 05:10:09 10° S
NOSS 8 (F) 4.4 05:01:34 14° SW 05:04:28 76° WNW 05:08:02 10° NNE
Cosmos 2098 Rocket 2.8 05:01:03 10° S 05:04:29 81° E 05:08:51 10° N
USA 129 3.5 05:13:45 14° WSW 05:14:24 16° W 05:15:48 10° NW
DNEPR-1 R/B 3.7 05:11:12 10° NNW 05:16:30 77° WSW 05:20:54 10° SSE
MOZ.5/SAFIR/RUBIN 5/SL-8 4.0 05:16:00 10° S 05:20:39 53° W 05:25:20 10° NNW
Resurs 1-4 Rocket 3.9 05:18:05 10° NNW 05:21:10 16° WNW 05:24:15 10° W
Thor Agena Rocket 3.7 05:18:07 10° S 05:23:11 56° WSW 05:28:13 10° NNW
USA 229 DEB 4.2 05:17:37 10° NNW 05:24:45 72° ENE 05:31:55 10° SE
USA 229 4.2 05:17:42 10° NNW 05:24:50 71° ENE 05:32:01 10° SE
SL-16 R/B 3.9 05:21:40 10° SW 05:25:42 18° W 05:29:45 10° NW
Cosmos 1606 Rocket 3.6 05:21:22 10° SSW 05:25:44 63° W 05:30:05 10° N
Meteor 1-31 Rocket 4.5 05:25:11 10° NNE 05:28:50 35° E 05:32:28 10° SSE
Cosmos 2369 Rocket 2.4 05:25:54 10° SSW 05:31:35 81° ESE 05:37:17 10° NNE
Atlas Centaur 2 3.7 05:27:01 10° SW 05:35:02 46° SSE 05:42:45 10° E
